Terminal Aerodrome Forecast
Issued by NWS Houston/Galveston, TX

Home | Current Version | Previous Version | Text Only | Print | Product List | Glossary On
Versions: 1 2 3 4 5 6 7 8 9 10 11 12 13 14 15 16 17 18
000
FTUS44 KHGX 231122
TAFGLS
TAF
KGLS 231122Z 2312/2412 VRB03KT 4SM BR BKN012
      TEMPO 2312/2313 2SM BR BKN009
     FM231400 16007KT P6SM SCT015
     FM231800 16012KT P6SM FEW025
     FM240500 16013KT P6SM SCT015
      TEMPO 2409/2412 P6SM BKN015=

USA.gov is the U.S. government's official web portal to all federal, state and local government web resources and services.